Weather at Nanga Ruan Airstrip

Public forecast

Using degrees Celsius for public forecast. Weather courtesy of forecast.io.

Closest aviation weather report (METAR) to Nanga Ruan Airstrip

Closest report is Simanggang Airport, 108.8 nm (201.4 km) WNW.

(retrieved 0 seconds ago)

Closest aviation forecast (TAF) to Nanga Ruan Airstrip

Closest forecast is Sibu Airport, 121.3 nm (224.7 km) NW.

2024/05/29 18:00 (retrieved 4 hours ago)

TAF WBGS 291700Z 2918/3018 VRB03KT 9999 FEW016